[[{"header":{"parameterUnit":"m.s-1","parameterCategory":1,"la1":30.2991,"la2":30.254,"lo1":-89.0895,"lo2":-89.0444,"dy":0.0017,"dx":0.0017,"nx":28,"ny":28,"refTime":"2025-12-18T03:00:00:Z","depth":0,"parameterNumber":2,"parameterNumberName":"U-component_of_WINDS"},"data":[0,0,0,0,0,0,0,0,0,0,0,0,0,0,0,0,0,0,0,0,0,0,0,0,0,0,0,0,0,0,0,0,0,0,0,0,0,0,0,0,0,0,0,0,0,0,0,0,0,0,0,0,0,0,0,0,0,0,-3.7099,-3.7101,0,-3.7249,-3.7251,-3.7252,-3.7284,-3.7283,-3.7282,-3.7281,-3.7434,-3.7438,-3.7443,0,0,0,0,0,0,0,0,0,0,0,0,0,-3.684,-3.6844,-3.7099,-3.7101,-3.7103,-3.7249,-3.7251,-3.7253,-3.7285,-3.7283,-3.7282,-3.7281,-3.7432,-3.7438,-3.7444,0,0,0,0,0,0,0,0,0,0,0,0,0,-3.6967,-3.6846,-3.7099,-3.7136,-3.7141,-3.7248,-3.7251,-3.7253,-3.7285,-3.7283,-3.7281,-3.728,-3.743,-3.7437,-3.7445,-3.7525,0,0,-3.7468,-3.7471,0,0,0,0,0,0,0,0,-3.696,-3.6977,-3.7129,-3.7134,-3.7139,-3.7246,-3.7215,-3.7344,-3.7285,-3.723,-3.7281,-3.7279,-3.7372,-3.7385,-3.7416,-3.7532,-3.7539,-3.7469,-3.7473,-3.7477,-3.7479,0,0,0,0,0,0,0,-3.6951,-3.697,-3.7158,-3.7131,-3.7138,-3.7145,-3.7162,-3.724,-3.7309,-3.7235,-3.7238,-3.7255,-3.7375,-3.7409,-3.742,-3.7541,-3.7469,-3.7475,-3.748,-3.7483,-3.773,-3.7732,0,0,0,0,0,0,-3.6936,-3.6963,-3.7154,-3.7163,-3.7044,-3.7151,-3.717,-3.7214,-3.7308,-3.7321,-3.7256,-3.7256,-3.7397,-3.7411,-3.7426,-3.7526,-3.7477,-3.7484,-3.7488,-3.7728,-3.7731,-3.7733,0,0,0,0,0,0,-3.693,-3.6952,-3.7148,-3.7064,-3.7089,-3.7158,-3.7207,-3.7217,-3.7251,-3.7324,-3.7336,-3.7278,-3.7396,-3.7415,-3.75,-3.7531,-3.7487,-3.7494,-3.7726,-3.7729,-3.7732,-3.7726,0,0,0,0,0,0,-3.6922,-3.695,-3.6981,-3.7064,-3.7093,-3.7219,-3.7209,-3.7222,-3.7265,-3.7266,-3.7348,-3.736,-3.7396,-3.7489,-3.7508,-3.7541,-3.75,-3.7723,-3.7727,-3.7731,-3.7724,-3.7728,-3.7733,0,0,0,0,0,-3.6913,-3.6974,-3.6983,-3.7006,-3.7134,-3.7221,-3.7238,-3.7279,-3.7267,-3.7299,-3.7346,-3.7357,-3.7525,-3.7497,-3.7519,-3.7555,-3.7721,-3.7726,-3.773,-3.7722,-3.7728,-3.7732,0,0,0,0,0,0,-3.6892,-3.6985,-3.6996,-3.7085,-3.7145,-3.7226,-3.7268,-3.7283,-3.7347,-3.7346,-3.7393,-3.7411,-3.7494,-3.7533,-3.75,-3.7638,-3.7623,-3.7632,-3.7609,-3.7615,-3.7619,-3.7607,-3.7506,0,0,0,0,0,-3.6898,-3.6961,-3.7039,-3.711,-3.714,-3.7199,-3.7238,-3.7264,-3.7328,-3.7353,-3.7406,-3.7468,-3.7534,-3.7577,-3.7642,-3.773,-3.7748,-3.7766,-3.777,-3.7773,-3.778,-3.783,-3.7838,-3.7747,-3.7747,-3.7747,0,0,-3.691,-3.6969,-3.7006,-3.7107,-3.7157,-3.7221,-3.722,-3.7288,-3.7336,-3.7364,-3.7447,-3.7488,-3.756,-3.7647,-3.7688,-3.7682,-3.781,-3.7779,-3.7781,-3.7786,-3.7835,-3.7844,-3.7851,-3.775,-3.775,-3.7749,0,0,-3.6966,-3.7017,-3.7081,-3.7131,-3.7206,-3.7245,-3.7261,-3.734,-3.7369,-3.7454,-3.7476,-3.7534,-3.7648,-3.7698,-3.7738,-3.7813,-3.7826,-3.7833,-3.7856,-3.7903,-3.7911,-3.7917,-3.7943,-3.7952,-3.784,-3.784,-3.784,0,-3.6971,-3.7069,-3.7113,-3.718,-3.7224,-3.7253,-3.7319,-3.7365,-3.7457,-3.7487,-3.748,-3.7623,-3.7673,-3.7772,-3.7791,-3.7823,-3.7842,-3.7824,-3.7906,-3.7913,-3.792,-3.7946,-3.7955,-3.7841,-3.7841,-3.7841,-3.784,0,-3.7073,-3.714,-3.7184,-3.7272,-3.7322,-3.7388,-3.7441,-3.7485,-3.7508,-3.7547,-3.7633,-3.7695,-3.7773,-3.7799,-3.7821,-3.7901,-3.7895,-3.7897,-3.7882,-3.7928,-3.7953,-3.7963,-3.7841,-3.7841,-3.7841,-3.7841,0,0,-3.7117,-3.723,-3.7245,-3.7286,-3.7372,-3.7425,-3.7493,-3.757,-3.7606,-3.767,-3.7727,-3.7823,-3.7825,-3.7871,-3.7899,-3.7941,-3.7997,-3.7938,-3.794,-3.7946,-3.8088,-3.8086,-3.8097,-3.8007,-3.8009,-3.801,-3.8082,0,-3.7182,-3.7304,-3.7346,-3.7446,-3.7509,-3.7539,-3.7598,-3.7656,-3.7696,-3.7755,-3.7798,-3.7865,-3.7863,-3.7891,-3.7934,-3.7981,-3.8026,-3.7976,-3.806,-3.8062,-3.804,-3.811,-3.8108,-3.8172,-3.8092,-3.8094,-3.8095,0,-3.7274,-3.7339,-3.7446,-3.7524,-3.7552,-3.7604,-3.7679,-3.7735,-3.7802,-3.7828,-3.788,-3.7905,-3.7977,-3.796,-3.8059,-3.8024,-3.8061,-3.809,-3.8093,-3.8102,-3.808,-3.8119,-3.8194,-3.8203,-3.8111,-3.811,-3.8108,0,-3.7295,-3.7409,-3.7488,-3.7522,-3.7616,-3.7652,-3.7692,-3.7758,-3.7802,-3.7867,-3.7896,-3.7968,-3.8007,-3.8063,-3.8107,-3.809,-3.8203,-3.8189,-3.8225,-3.8224,-3.8246,-3.8244,-3.8327,-3.8272,-3.8272,-3.8272,-3.8271,0,-3.7363,-3.7427,-3.7499,-3.7547,-3.762,-3.7668,-3.7738,-3.7781,-3.7839,-3.7896,-3.7926,-3.7979,-3.8035,-3.8095,-3.8131,-3.8207,-3.8225,-3.8248,-3.8256,-3.8244,-3.8241,-3.8268,-3.8265,-3.8274,-3.8274,-3.8273,-3.8273,0,-3.7397,-3.7449,-3.7536,-3.7618,-3.764,-3.769,-3.776,-3.7808,-3.7849,-3.7921,-3.794,-3.8005,-3.8077,-3.8127,-3.822,-3.8244,-3.8327,-3.8335,-3.8304,-3.8308,-3.8341,-3.8337,-3.8443,-3.846,-3.8394,-3.8395,-3.8395,0,-3.7436,-3.7487,-3.7574,-3.7614,-3.7655,-3.772,-3.7765,-3.7814,-3.786,-3.7941,-3.7979,-3.8054,-3.8116,-3.8231,-3.8285,-3.8357,-3.8366,-3.8399,-3.8377,-3.8364,-3.8366,-3.8362,-3.8367,-3.8402,-3.8402,-3.8402,-3.8403,0,-3.75,-3.7523,-3.7587,-3.766,-3.7713,-3.7773,-3.7833,-3.7865,-3.7924,-3.7974,-3.8049,-3.8097,-3.8192,-3.8266,-3.8343,-3.8385,-3.8404,-3.841,-3.8422,-3.8409,-3.8389,-3.84,-3.8312,-3.8406,-3.8406,-3.8406,-3.8406,-3.8405,-3.7538,-3.7584,-3.7652,-3.7723,-3.7773,-3.7829,-3.7878,-3.7926,-3.7989,-3.8071,-3.8096,-3.8173,-3.8241,-3.8346,-3.8389,-3.845,-3.8448,-3.8465,-3.847,-3.8473,-3.8472,-3.838,-3.8464,-3.8464,-3.8464,-3.8464,-3.8464,0,-3.7602,-3.7648,-3.7713,-3.7796,-3.7851,-3.7865,-3.7933,-3.7978,-3.8046,-3.8107,-3.8168,-3.8254,-3.8326,-3.8387,-3.8461,-3.8499,-3.8509,-3.8517,-3.8514,-3.8523,-3.8471,-3.8452,-3.8507,-3.8507,-3.8507,-3.8507,-3.8507,-3.8507,-3.7642,-3.7721,-3.7752,-3.7856,-3.7902,-3.7978,-3.8015,-3.8067,-3.8116,-3.8211,-3.8271,-3.831,-3.8371,-3.8451,-3.8517,-3.8533,-3.8559,-3.8564,-3.8582,-3.8532,-3.8527,-3.8522,-3.8505,-3.8569,-3.857,-3.8629,-3.863,-3.863]},{"header":{"parameterUnit":"m.s-1","parameterCategory":1,"la1":30.2991,"la2":30.254,"lo1":-89.0895,"lo2":-89.0444,"dy":0.0017,"dx":0.0017,"nx":28,"ny":28,"refTime":"2025-12-18T03:00:00:Z","depth":0,"parameterNumber":3,"parameterNumberName":"V-component_of_WINDS"},"data":[0,0,0,0,0,0,0,0,0,0,0,0,0,0,0,0,0,0,0,0,0,0,0,0,0,0,0,0,0,0,0,0,0,0,0,0,0,0,0,0,0,0,0,0,0,0,0,0,0,0,0,0,0,0,0,0,0,0,3.0985,3.0985,0,3.1003,3.1003,3.1003,3.099,3.0989,3.0989,3.0988,3.1004,3.1005,3.1006,0,0,0,0,0,0,0,0,0,0,0,0,0,3.0938,3.0939,3.0985,3.0985,3.0985,3.1003,3.1003,3.1003,3.099,3.0989,3.0989,3.0988,3.1004,3.1005,3.1006,0,0,0,0,0,0,0,0,0,0,0,0,0,3.0958,3.094,3.0985,3.0981,3.0981,3.1003,3.1003,3.1004,3.099,3.0989,3.0988,3.0988,3.1003,3.1005,3.1006,3.1032,0,0,3.101,3.1011,0,0,0,0,0,0,0,0,3.0957,3.0959,3.0981,3.0981,3.0981,3.0993,3.0993,3.1013,3.099,3.0986,3.0988,3.0987,3.1001,3.1002,3.1008,3.1033,3.1034,3.101,3.1011,3.1012,3.1012,0,0,0,0,0,0,0,3.0955,3.0958,3.0992,3.0982,3.0981,3.0978,3.098,3.0996,3.0998,3.0987,3.0986,3.0988,3.1001,3.1006,3.1008,3.1034,3.101,3.1012,3.1013,3.1013,3.1085,3.1086,0,0,0,0,0,0,3.0955,3.0957,3.0991,3.0993,3.0967,3.098,3.0982,3.099,3.0998,3.0998,3.0989,3.0988,3.1004,3.1006,3.1008,3.1042,3.1012,3.1013,3.1014,3.1084,3.1085,3.1086,0,0,0,0,0,0,3.0954,3.0958,3.0991,3.0975,3.0979,3.0981,3.0991,3.0991,3.0997,3.1,3.1,3.0995,3.1004,3.1006,3.1027,3.1042,3.1014,3.1015,3.1083,3.1084,3.1086,3.1108,0,0,0,0,0,0,3.0952,3.0957,3.0967,3.0975,3.098,3.101,3.0992,3.0992,3.1,3.0998,3.1005,3.1005,3.1003,3.1025,3.1029,3.1044,3.1016,3.1081,3.1083,3.1085,3.1106,3.1111,3.1114,0,0,0,0,0,3.0951,3.0972,3.0968,3.0972,3.0992,3.101,3.1013,3.1011,3.1001,3.1011,3.1014,3.1005,3.104,3.1028,3.1031,3.1047,3.108,3.1083,3.1085,3.1105,3.111,3.1114,0,0,0,0,0,0,3.0963,3.0972,3.0968,3.0992,3.1001,3.1008,3.1021,3.1016,3.1027,3.1024,3.1021,3.1022,3.1045,3.1048,3.1034,3.1075,3.1059,3.1062,3.1072,3.1077,3.1081,3.108,3.1018,0,0,0,0,0,3.0969,3.0984,3.0991,3.1011,3.1016,3.1018,3.1026,3.1024,3.1032,3.1035,3.1039,3.1047,3.106,3.1068,3.108,3.1107,3.1109,3.1119,3.1123,3.1127,3.113,3.1147,3.1152,3.1094,3.1094,3.1094,0,0,3.0981,3.0988,3.0997,3.1014,3.1021,3.1036,3.1021,3.1037,3.1049,3.1037,3.1058,3.1062,3.107,3.1095,3.1106,3.1098,3.1146,3.113,3.1132,3.1134,3.115,3.1155,3.116,3.1096,3.1095,3.1095,0,0,3.1011,3.1017,3.1037,3.1044,3.1055,3.1056,3.1061,3.107,3.1072,3.1094,3.1086,3.11,3.1121,3.1129,3.1136,3.1172,3.1166,3.1176,3.1197,3.1213,3.1218,3.1222,3.1237,3.1243,3.1179,3.1179,3.1179,0,3.1024,3.1048,3.1047,3.1065,3.1074,3.1066,3.1086,3.1093,3.1107,3.1113,3.1104,3.1134,3.1138,3.1166,3.1176,3.118,3.1187,3.1175,3.1217,3.1222,3.1225,3.124,3.1245,3.118,3.118,3.118,3.118,0,3.1065,3.1082,3.1096,3.1112,3.1122,3.1141,3.1143,3.1153,3.1151,3.1154,3.1177,3.1183,3.1198,3.1204,3.1201,3.1232,3.1228,3.1218,3.1202,3.1232,3.1246,3.1251,3.1182,3.1182,3.1181,3.1181,0,0,3.1102,3.112,3.1125,3.1134,3.1146,3.1159,3.1178,3.1194,3.1205,3.1214,3.1232,3.1252,3.1245,3.1252,3.125,3.1264,3.1296,3.1253,3.1254,3.1263,3.1334,3.1343,3.1349,3.1292,3.1293,3.1293,3.1334,0,3.1135,3.117,3.1171,3.1203,3.122,3.1214,3.1231,3.1241,3.1245,3.126,3.1263,3.1279,3.1266,3.1271,3.1285,3.1289,3.1311,3.1286,3.1309,3.1309,3.1309,3.1356,3.1364,3.1402,3.1339,3.134,3.1341,0,3.1177,3.1191,3.1226,3.124,3.1247,3.1262,3.1279,3.1292,3.1304,3.1306,3.1316,3.1313,3.1333,3.1317,3.1346,3.1329,3.1338,3.1342,3.1344,3.1347,3.1328,3.1362,3.1414,3.1421,3.1349,3.1348,3.1348,0,3.1204,3.1231,3.1257,3.1264,3.1279,3.1291,3.1298,3.1309,3.132,3.1333,3.1341,3.1356,3.1365,3.1377,3.1378,3.1366,3.1409,3.1391,3.1412,3.1412,3.1422,3.1422,3.1478,3.1425,3.1425,3.1425,3.1425,0,3.1241,3.1263,3.127,3.1285,3.131,3.1311,3.1336,3.1342,3.1353,3.137,3.1364,3.1381,3.138,3.1397,3.1398,3.1424,3.1427,3.143,3.143,3.1431,3.1431,3.1438,3.1436,3.1426,3.1426,3.1426,3.1425,0,3.1275,3.128,3.1308,3.1322,3.1326,3.1344,3.1356,3.1371,3.1375,3.1397,3.1402,3.1408,3.1428,3.1431,3.1452,3.1453,3.1485,3.1481,3.1482,3.1482,3.1503,3.1502,3.1568,3.1577,3.1516,3.1517,3.1517,0,3.1299,3.1316,3.1333,3.1345,3.1354,3.1372,3.1384,3.1386,3.1399,3.1415,3.1429,3.1449,3.1465,3.1496,3.1503,3.152,3.1518,3.154,3.1521,3.1523,3.1521,3.1521,3.1524,3.1544,3.1545,3.1545,3.1546,0,3.1342,3.1344,3.1362,3.1382,3.1397,3.1412,3.1426,3.1436,3.144,3.1455,3.1476,3.1488,3.1513,3.1533,3.1551,3.1558,3.1553,3.1552,3.1558,3.156,3.1561,3.1564,3.1494,3.155,3.155,3.155,3.1549,3.1549,3.1373,3.139,3.1405,3.1426,3.1438,3.1452,3.1468,3.1476,3.1494,3.1515,3.1515,3.1539,3.1553,3.1577,3.1586,3.1605,3.1597,3.1605,3.1608,3.161,3.1614,3.1557,3.1607,3.1607,3.1607,3.1607,3.1607,0,3.1418,3.1428,3.1448,3.147,3.1487,3.1482,3.1498,3.1513,3.1535,3.1548,3.1565,3.1591,3.1611,3.162,3.1641,3.1654,3.1653,3.166,3.1659,3.1662,3.1618,3.1612,3.1661,3.1661,3.1661,3.1661,3.1661,3.1661,3.1443,3.1472,3.1477,3.1513,3.1522,3.1548,3.1558,3.1571,3.1583,3.1613,3.1631,3.1637,3.165,3.1671,3.169,3.1692,3.1701,3.1709,3.1711,3.167,3.1664,3.1659,3.1654,3.171,3.171,3.1753,3.1753,3.1754]}]]